Regional Weather Roundup
Issued by NWS

Home | Current Version | Previous Version | Text Only | Print | Product List | Glossary Off
Versions: 1 2 3 4 5 6 7 8 9 10 11 12 13 14 15 16 17 18 19 20 21 22 23 24 25 26 27 28 29 30 31 32 33 34 35 36 37 38 39 40 41 42 43 44 45 46 47 48 49 50

000
ASUS45 KSLC 040310
RWRUT

UTAH REGIONAL WEATHER ROUNDUP
NATIONAL WEATHER SERVICE SALT LAKE CITY UT
900 PM MDT SUN MAY 03 2015

UTZ001>011-023>025-040400-

NORTHERN UTAH

CITY           SKY/WX    TMP DP  RH WIND       PRES   REMARKS
BRIGHAM CITY   MOCLDY    65  35  33 W5        29.86S
HILL AFB       MOCLDY    66  40  37 N5        29.88R
LOGAN          CLEAR     56  48  74 N7        29.89R
OGDEN          MOCLDY    64  41  42 NW8       29.86R
PROVO AIRPORT  MOCLDY    66  37  34 S9        29.86S
SALT LAKE CITY MOCLDY    68  44  42 N12       29.85R
VERNAL         PTCLDY    58  38  47 N3        29.96R
WENDOVER       MOCLDY    68  34  28 NW6       29.86R
HEBER CITY     CLOUDY    63  32  31 S10G24    29.92R
WEST JORDAN    CLEAR     64  45  48 NW12      29.88R

$$

UTZ012>022-026-027-040400-

SOUTHERN/CENTRAL UTAH

CITY           SKY/WX    TMP DP  RH WIND       PRES   REMARKS
BLANDING       CLOUDY    57  40  52 W9        30.08R
BRYCE CANYON   CLOUDY    45  36  70 N6        30.09S
CEDAR CITY     CLOUDY    60  35  39 SE13      29.95R
DELTA          MOCLDY    67  33  28 S10       29.87R
HANKSVILLE     PTCLDY    68  32  26 NW3       29.90R
MILFORD        CLOUDY    64  34  32 S17G26    29.92R
MOAB/CYNLANDS  MOCLDY    67  32  27 VRB3      29.88R
PRICE          MOCLDY    59  31  34 N5        29.95S
ST GEORGE      CLOUDY    72  37  28 E22G28    29.86R
KANAB          CLOUDY    57  43  58 CALM      30.01F

$$

REGIONAL REPORTS     COLORADO/ARIZONA

CITY           SKY/WX    TMP DP  RH WIND       PRES   REMARKS
CRAIG, CO      CLOUDY    51  39  63 S6        30.04R
GRAND JUNCTION CLOUDY    63  39  41 SE10      29.97R
RIFLE          CLOUDY    60  38  43 NW7       30.02R
MONTROSE       CLOUDY    56  40  55 S9        30.06R
CORTEZ         PTCLDY    58  38  47 S12       30.02R
PAGE, AZ       PTCLDY    68  38  33 NW7       29.93R
GRAND CANYON   MOCLDY    45  39  79 CALM      30.06F
KINGMAN        PTCLDY    69  35  28 S7        29.85R
FLAGSTAFF      MOCLDY    52  37  56 CALM      30.08R

$$

REGIONAL REPORTS    NEVADA/IDAHO/WYOMING

CITY           SKY/WX    TMP DP  RH WIND       PRES   REMARKS
LAS VEGAS, NV  PTCLDY    85  27  12 SW12      29.68R
ELY            MOCLDY    64  25  22 N16       29.93R
ELKO           CLOUDY    63  35  35 N12       29.89F
POCATELLO, ID  MOCLDY    63  39  41 NE14      29.89R
BURLEY         PTCLDY    62  39  42 S12       29.83R
EVANSTON, WY   PTCLDY    48  40  73 E16       30.03R
ROCK SPRINGS   CLOUDY    48  39  71 NW9       30.07S
KEMMERER       CLOUDY    43  41  93 N9G16     30.07S

$$


USA.gov is the U.S. government's official web portal to all federal, state and local government web resources and services.